When you browse on this site, cookies collect data to enhance your experience and personalize the content and advertising you see.
Visit our Privacy Policy to learn more. By continuing to use the site, you agree to this use of cookies and data.

Hourly Weather Tuokou

Today, 11 July, Saturday

Time Temperature Precipitation Wind Pressure Humidity
00:00 +27°C° 0.6 mm 3 mps 728 mmHg 95%
01:00 +27°C° 0 mm 3 mps 728 mmHg 97%
02:00 +27°C° 0.7 mm 3 mps 727 mmHg 97%
03:00 +26°C° 0.7 mm 3 mps 727 mmHg 97%
04:00 +26°C° 0.7 mm 3 mps 727 mmHg 96%
05:00 +26°C° 0.5 mm 3 mps 727 mmHg 96%
06:00 +26°C° 0.5 mm 4 mps 728 mmHg 96%
07:00 +27°C° 0 mm 4 mps 728 mmHg 97%
08:00 +27°C° 0.1 mm 4 mps 728 mmHg 95%
09:00 +27°C° 0.1 mm 4 mps 728 mmHg 93%
10:00 +27°C° 0.1 mm 4 mps 728 mmHg 90%
11:00 +28°C° 0 mm 5 mps 728 mmHg 86%
12:00 +29°C° 0 mm 5 mps 728 mmHg 82%
13:00 +30°C° 0 mm 6 mps 728 mmHg 73%
14:00 +30°C° 0 mm 5 mps 728 mmHg 75%
15:00 +30°C° 0 mm 5 mps 728 mmHg 77%
16:00 +30°C° 0 mm 5 mps 728 mmHg 78%
17:00 +30°C° 0 mm 4 mps 728 mmHg 79%
18:00 +29°C° 0 mm 4 mps 728 mmHg 79%
19:00 +28°C° 0 mm 3 mps 728 mmHg 83%
20:00 +28°C° 0 mm 3 mps 729 mmHg 82%
21:00 +28°C° 0 mm 3 mps 729 mmHg 82%
22:00 +28°C° 0 mm 3 mps 729 mmHg 82%
23:00 +28°C° 0 mm 3 mps 729 mmHg 82%

Tomorrow, 12 July, Sunday

Time Temperature Precipitation Wind Pressure Humidity
00:00 +28°C° 0 mm 3 mps 730 mmHg 82%
01:00 +28°C° 0 mm 3 mps 730 mmHg 82%
02:00 +27°C° 0.3 mm 3 mps 729 mmHg 86%
03:00 +26°C° 0.3 mm 3 mps 729 mmHg 90%
04:00 +26°C° 0.3 mm 3 mps 729 mmHg 94%
05:00 +26°C° 0 mm 2 mps 730 mmHg 93%
06:00 +26°C° 0 mm 2 mps 730 mmHg 93%
07:00 +27°C° 0 mm 2 mps 731 mmHg 92%
08:00 +28°C° 0 mm 3 mps 731 mmHg 84%
09:00 +30°C° 0 mm 4 mps 731 mmHg 76%
10:00 +33°C° 0 mm 5 mps 732 mmHg 68%
11:00 +33°C° 0.2 mm 4 mps 731 mmHg 68%
12:00 +33°C° 0.2 mm 4 mps 731 mmHg 69%
13:00 +33°C° 0.2 mm 4 mps 731 mmHg 70%
14:00 +33°C° 0.8 mm 3 mps 731 mmHg 75%
15:00 +33°C° 0.8 mm 3 mps 731 mmHg 80%
16:00 +31°C° 0.8 mm 3 mps 730 mmHg 85%
17:00 +30°C° 0.5 mm 2 mps 731 mmHg 88%
18:00 +29°C° 0.5 mm 2 mps 731 mmHg 91%
19:00 +28°C° 0.5 mm 1 mps 731 mmHg 93%
20:00 +27°C° 0.4 mm 1 mps 732 mmHg 94%
21:00 +27°C° 0.4 mm 1 mps 732 mmHg 94%
22:00 +26°C° 0.4 mm 1 mps 733 mmHg 94%
23:00 +26°C° 0.1 mm 1 mps 733 mmHg 95%

Day after tomorrow, 13 July, Monday

Time Temperature Precipitation Wind Pressure Humidity
00:00 +26°C° 0.1 mm 1 mps 733 mmHg 95%
01:00 +26°C° 0.1 mm 1 mps 732 mmHg 95%
02:00 +26°C° 0 mm 1 mps 732 mmHg 96%
03:00 +26°C° 0 mm 1 mps 733 mmHg 96%
04:00 +23°C° 0 mm 0 mps 733 mmHg 96%
05:00 +24°C° 0 mm 0 mps 733 mmHg 95%
06:00 +25°C° 0 mm 0 mps 733 mmHg 93%
07:00 +26°C° 0 mm 0 mps 734 mmHg 91%
08:00 +30°C° 0 mm 1 mps 734 mmHg 81%
09:00 +33°C° 0 mm 3 mps 734 mmHg 71%
10:00 +34°C° 0 mm 4 mps 734 mmHg 61%
11:00 +35°C° 0 mm 3 mps 734 mmHg 58%
12:00 +36°C° 0 mm 3 mps 734 mmHg 56%
13:00 +37°C° 0 mm 3 mps 733 mmHg 53%
14:00 +37°C° 0 mm 3 mps 733 mmHg 54%
15:00 +36°C° 0 mm 3 mps 732 mmHg 56%
16:00 +36°C° 0 mm 3 mps 732 mmHg 57%
17:00 +34°C° 0 mm 3 mps 732 mmHg 63%
18:00 +32°C° 0 mm 2 mps 732 mmHg 69%
19:00 +30°C° 0 mm 2 mps 733 mmHg 76%
20:00 +29°C° 0 mm 2 mps 733 mmHg 78%
21:00 +28°C° 0 mm 1 mps 734 mmHg 81%
22:00 +28°C° 0 mm 1 mps 734 mmHg 83%
23:00 +27°C° 0.1 mm 1 mps 734 mmHg 86%

14 July, Tuesday

Time Temperature Precipitation Wind Pressure Humidity
00:00 +27°C° 0.1 mm 1 mps 734 mmHg 89%
01:00 +26°C° 0.1 mm 1 mps 734 mmHg 91%
02:00 +26°C° 0 mm 1 mps 734 mmHg 93%
03:00 +26°C° 0 mm 1 mps 734 mmHg 94%
04:00 +24°C° 0 mm 0 mps 733 mmHg 96%
05:00 +27°C° 0 mm 1 mps 734 mmHg 92%
06:00 +28°C° 0 mm 1 mps 734 mmHg 88%
07:00 +29°C° 0 mm 1 mps 734 mmHg 85%
08:00 +31°C° 0 mm 2 mps 734 mmHg 77%
09:00 +32°C° 0 mm 2 mps 734 mmHg 70%
10:00 +35°C° 0 mm 3 mps 734 mmHg 62%
11:00 +36°C° 0 mm 3 mps 733 mmHg 59%
12:00 +37°C° 0 mm 3 mps 733 mmHg 56%
13:00 +38°C° 0 mm 3 mps 732 mmHg 53%
14:00 +37°C° 0 mm 3 mps 732 mmHg 55%
15:00 +37°C° 0 mm 3 mps 731 mmHg 57%
16:00 +37°C° 0 mm 3 mps 730 mmHg 60%
17:00 +35°C° 0 mm 3 mps 731 mmHg 65%
18:00 +33°C° 0 mm 3 mps 731 mmHg 70%
19:00 +30°C° 0 mm 2 mps 731 mmHg 75%
20:00 +30°C° 0 mm 2 mps 732 mmHg 77%
21:00 +29°C° 0 mm 2 mps 732 mmHg 79%
22:00 +28°C° 0 mm 1 mps 733 mmHg 81%
23:00 +28°C° 0 mm 1 mps 732 mmHg 84%

15 July, Wednesday

Time Temperature Precipitation Wind Pressure Humidity
00:00 +27°C° 0 mm 1 mps 732 mmHg 87%
01:00 +27°C° 0 mm 1 mps 732 mmHg 89%
02:00 +27°C° 0 mm 1 mps 731 mmHg 91%
03:00 +27°C° 0 mm 1 mps 731 mmHg 92%
04:00 +26°C° 0 mm 1 mps 731 mmHg 94%
05:00 +27°C° 0 mm 1 mps 731 mmHg 90%
06:00 +28°C° 0 mm 1 mps 732 mmHg 86%
07:00 +29°C° 0 mm 2 mps 732 mmHg 82%
08:00 +31°C° 0 mm 2 mps 732 mmHg 76%
09:00 +33°C° 0 mm 3 mps 731 mmHg 69%
10:00 +35°C° 0 mm 4 mps 731 mmHg 63%
11:00 +36°C° 0 mm 4 mps 731 mmHg 60%
12:00 +36°C° 0 mm 4 mps 730 mmHg 57%
13:00 +37°C° 0 mm 4 mps 729 mmHg 55%
14:00 +37°C° 0 mm 4 mps 729 mmHg 56%
15:00 +37°C° 0 mm 4 mps 729 mmHg 58%
16:00 +36°C° 0 mm 4 mps 728 mmHg 60%
17:00 +35°C° 0 mm 4 mps 729 mmHg 65%
18:00 +33°C° 0 mm 3 mps 729 mmHg 70%
19:00 +31°C° 0 mm 3 mps 729 mmHg 75%
20:00 +30°C° 0.2 mm 3 mps 730 mmHg 78%
21:00 +29°C° 0.2 mm 2 mps 730 mmHg 81%
22:00 +29°C° 0.2 mm 2 mps 730 mmHg 84%
23:00 +29°C° 0 mm 2 mps 730 mmHg 85%

16 July, Thursday

Time Temperature Precipitation Wind Pressure Humidity
00:00 +28°C° 0 mm 2 mps 730 mmHg 85%
01:00 +28°C° 0 mm 2 mps 730 mmHg 86%
02:00 +28°C° 0.2 mm 2 mps 730 mmHg 86%
03:00 +28°C° 0.2 mm 1 mps 729 mmHg 87%
04:00 +28°C° 0.2 mm 1 mps 729 mmHg 88%
05:00 +28°C° 0.1 mm 1 mps 730 mmHg 87%
06:00 +28°C° 0.1 mm 1 mps 730 mmHg 87%
07:00 +28°C° 0.1 mm 2 mps 730 mmHg 86%
08:00 +29°C° 0 mm 2 mps 730 mmHg 83%
09:00 +29°C° 0 mm 2 mps 730 mmHg 80%
10:00 +30°C° 0 mm 3 mps 731 mmHg 77%
11:00 +31°C° 0 mm 3 mps 730 mmHg 73%
12:00 +33°C° 0 mm 3 mps 730 mmHg 69%
13:00 +34°C° 0 mm 3 mps 729 mmHg 66%
14:00 +34°C° 0 mm 3 mps 729 mmHg 66%
15:00 +34°C° 0 mm 3 mps 729 mmHg 67%
16:00 +35°C° 0 mm 3 mps 729 mmHg 67%
17:00 +33°C° 0.2 mm 3 mps 729 mmHg 71%
18:00 +31°C° 0.2 mm 3 mps 729 mmHg 75%
19:00 +30°C° 0.2 mm 3 mps 730 mmHg 79%
20:00 +29°C° 0.1 mm 2 mps 730 mmHg 79%
21:00 +29°C° 0.1 mm 2 mps 730 mmHg 80%
22:00 +29°C° 0.1 mm 2 mps 731 mmHg 81%
23:00 +28°C° 0.1 mm 2 mps 731 mmHg 84%
Show more